Regional Weather Roundup
Issued by NWS

Home | Current Version | Previous Version | Text Only | Print | Product List | Glossary Off
Versions: 1 2 3 4 5 6 7 8 9 10 11 12 13 14 15 16 17 18 19 20 21 22 23 24 25 26 27 28 29 30 31 32 33 34 35 36 37 38 39 40 41 42 43 44 45 46 47 48 49 50

000
ASUS43 KFSD 020202
RWRSD

WEATHER ROUNDUP FOR SOUTH DAKOTA
NATIONAL WEATHER SERVICE SIOUX FALLS SD
900 PM CDT MON JUN 01 2015

NOTE: "FAIR" INDICATES FEW OR NO CLOUDS BELOW 12,000 FEET WITH NO
SIGNIFICANT WEATHER AND/OR OBSTRUCTIONS TO VISIBILITY.


SDZ001>005-009-010-012>017-020300-
NORTHWEST AND NORTH CENTRAL SOUTH DAKOTA

CITY           SKY/WX    TMP DP  RH WIND       PRES   REMARKS
BUFFALO          N/A     77  61  57 SE13      29.73S
FAITH            N/A     77  60  55 SE14      29.80F
MOBRIDGE       CLEAR     77  63  61 SE13      29.79R
$$

SDZ012>016-024>037-041>051-057-063-072>074-020300-
SOUTHWEST AND SOUTH CENTRAL SOUTH DAKOTA

CITY           SKY/WX    TMP DP  RH WIND       PRES   REMARKS
RAPID CTY ARPT CLOUDY    74  60  61 SE7       29.80F
PIERRE         CLEAR     73  63  70 SE9       29.83R
CUSTER         CLOUDY    66  46  48 SW8       29.99R
ELLSWORTH AFB  TSTM      77  63  63 NE8       29.83
PHILIP         CLOUDY    77  62  59 SE10      29.81S
PINE RIDGE     CLOUDY    75  59  57 S15G22    29.87R
WINNER         FAIR      77  59  53 S12       29.89R
$$

SDZ004>011-016>023-039-040-020300-
NORTHEAST SOUTH DAKOTA

CITY           SKY/WX    TMP DP  RH WIND       PRES   REMARKS
ABERDEEN       CLEAR     75  58  55 S15       29.87F
WATERTOWN      PTCLDY    70  49  47 SE13      29.95F
BROOKINGS      PTCLDY    72  48  43 S13       29.99F
SISSETON         N/A     72  50  45 S13       29.92F
$$

SDZ017-020-022-023-036>040-048>070-020300-
SOUTHEAST SOUTH DAKOTA

CITY           SKY/WX    TMP DP  RH WIND       PRES   REMARKS
SIOUX FALLS    MOCLDY    71  48  43 S14       30.00F
HURON          CLEAR     74  57  55 S14       29.90F
CHAMBERLAIN    PTCLDY    71  61  69 SE12      29.89S
MITCHELL       PTCLDY    75  54  47 S15       29.93F
YANKTON        CLEAR     73  50  43 SE15      29.98R
$$

ABBREVIATIONS USED IN REMARKS
   TC - TEMPERATURE IN CELSIUS
  WCI - WIND CHILL INDEX
   HX - HEAT INDEX
  VSB - VISIBILITY



USA.gov is the U.S. government's official web portal to all federal, state and local government web resources and services.